This is the latest recevied weather packets stored in our database for station/object KC5DAQ-27. If no packets are shown the sender has not sent any weather packets the latest 10 day(s).
| Time | Temp. | Humidity | Pressure | Rain* | Wind** | Luminosity | Snow |
|---|---|---|---|---|---|---|---|
| 1788648535 | 30° C | 77% | 1003.5 hPa | 0 mm | - | 7 W/m² | - |
| 1788648473 | 30° C | 76% | 1003.5 hPa | 0 mm | - | 7 W/m² | - |
| 1788648412 | 30° C | 76% | 1003.4 hPa | 0 mm | - | 7 W/m² | - |
| 1788648350 | 30° C | 75% | 1003.4 hPa | 0 mm | - | 7 W/m² | - |
| 1788648288 | 30° C | 74% | 1003.3 hPa | 0 mm | - | 9 W/m² | - |
| 1788648228 | 30.56° C | 74% | 1003.3 hPa | 0 mm | - | 9 W/m² | - |
| 1788648165 | 30.56° C | 73% | 1003.3 hPa | 0 mm | - | 11 W/m² | - |
| 1788648105 | 30.56° C | 73% | 1003.3 hPa | 0 mm | - | 11 W/m² | - |
| 1788648043 | 30.56° C | 72% | 1003.2 hPa | 0 mm | - | 12 W/m² | - |
| 1788647981 | 30.56° C | 72% | 1003.3 hPa | 0 mm | - | 12 W/m² | - |
| 1788647919 | 30.56° C | 72% | 1003.1 hPa | 0 mm | - | 12 W/m² | - |
| 1788647858 | 30.56° C | 73% | 1003.1 hPa | 0 mm | - | 12 W/m² | - |
| 1788647797 | 30.56° C | 73% | 1003.2 hPa | 0 mm | - | 14 W/m² | - |
| 1788647737 | 30.56° C | 73% | 1003.1 hPa | 0 mm | - | 16 W/m² | - |
| 1788647674 | 30.56° C | 73% | 1002.9 hPa | 0 mm | - | 18 W/m² | - |
| 1788647612 | 30.56° C | 72% | 1002.9 hPa | 0 mm | - | 19 W/m² | - |
| 1788647551 | 30.56° C | 72% | 1002.7 hPa | 0 mm | - | 21 W/m² | - |
| 1788647492 | 30.56° C | 72% | 1002.6 hPa | 0 mm | - | 28 W/m² | - |
| 1788647432 | 30.56° C | 71% | 1002.6 hPa | 0 mm | - | 32 W/m² | - |
| 1788647371 | 30.56° C | 71% | 1002.5 hPa | 0 mm | - | 33 W/m² | - |
| 1788647311 | 30.56° C | 71% | 1002.4 hPa | 0 mm | - | 37 W/m² | - |
| 1788647252 | 30.56° C | 71% | 1002.4 hPa | 0 mm | - | 40 W/m² | - |
| 1788647191 | 30.56° C | 71% | 1002.4 hPa | 0 mm | - | 44 W/m² | - |
| 1788647131 | 30.56° C | 73% | 1002.3 hPa | 0 mm | - | 58 W/m² | - |
| 1788647072 | 30.56° C | 73% | 1002.3 hPa | 0 mm | - | 67 W/m² | - |
* Rain latest hour (hover to see other rain measurements)
** Current wind speed in m/s (hover to see current wind gust speed)